Weather in Kudimkar

Russia / Perm Krai     59°00′52″N   54°39′51″E
temp.,
°C
wind,
m/s
gust,
m/s
humid.,
%
clouds,
%
prec.,
mm/h
press.,
hPa
HPBL,
m
28 february, sun
sun2823:00−18e41095100 0.1 1011349
02:00−19e3996100 0.0 1010311
05:00−22ene379794 0.1 1011189
08:00−23ene379793 0.0 1011183
11:00−20ene379278 0.0 1012364
14:00−16ene368899 0.0 1012560
17:00−14ne3689100 0.1 1013704
20:00−16nne2397100 0.1 101480
1 march, mon
mon123:00−19ne239995 0.1 101626
02:00−22ne129865 0.0 101820
05:00−23ne129739 0.0 101920
08:00−24n11970 0.0 101920
11:00−19ssw00900 0.0 1019123
14:00−14wsw128322 0.0 1018386
17:00−12s248759 0.0 1017422
20:00−17s369548 0.0 1014122
2 march, tue
tue223:00−16ssw3109470 0.0 1013277
02:00−16ssw5119397 0.0 1010364
05:00−15s5119299 0.0 1007424
08:00−14s51294100 0.5 1003446
11:00−14s51094100 1.3 1002473
14:00−12s5993100 0.8 1000505
17:00−11s4893100 1.4 999529
20:00−12s3994100 0.5 999441
3 march, wed
wed323:00−11s3795100 1.0 999294
02:00−12s2496100 0.3 998144
05:00−12ssw239698 0.4 99878
08:00−13ssw229697 0.1 99742
11:00−9sw129499 0.3 998171
14:00−5nw249097 0.3 998486
17:00−7nnw489299 0.7 999664
20:00−8nw2497100 0.3 1000119
4 march, thu
thu423:00−11nw389486 0.4 1002174
02:00−13wnw349739 0.0 100192
05:00−14wnw369666 0.0 1002123
08:00−15w369683 0.0 1002151
11:00−11w369272 0.1 1002284
14:00−7sw358687 0.0 1001619
17:00−7ssw488693 0.1 999718
20:00−7ssw51393100 0.3 996813